When you browse on this site, cookies collect data to enhance your experience and personalize the content and advertising you see.
Visit our Privacy Policy to learn more. By continuing to use the site, you agree to this use of cookies and data.

Météo par heure à Batna

Ce jour, 7 Juillet, Mardi

Heure Température Précipitation Vent Pression Humidité
00:00 +19°C° 0 mm 3 m/s 671 mmHg 62%
01:00 +18°C° 0 mm 3 m/s 670 mmHg 61%
02:00 +18°C° 0 mm 3 m/s 670 mmHg 59%
03:00 +17°C° 0 mm 3 m/s 670 mmHg 58%
04:00 +18°C° 0 mm 3 m/s 670 mmHg 55%
05:00 +19°C° 0 mm 3 m/s 671 mmHg 53%
06:00 +19°C° 0 mm 3 m/s 671 mmHg 50%
07:00 +21°C° 0 mm 4 m/s 672 mmHg 43%
08:00 +23°C° 0 mm 4 m/s 672 mmHg 37%
09:00 +26°C° 0 mm 4 m/s 673 mmHg 30%
10:00 +27°C° 0 mm 4 m/s 673 mmHg 28%
11:00 +28°C° 0 mm 4 m/s 674 mmHg 26%
12:00 +29°C° 0 mm 4 m/s 674 mmHg 23%
13:00 +30°C° 0 mm 4 m/s 674 mmHg 23%
14:00 +32°C° 0 mm 4 m/s 673 mmHg 22%
15:00 +32°C° 0 mm 4 m/s 673 mmHg 22%
16:00 +32°C° 0 mm 4 m/s 673 mmHg 23%
17:00 +30°C° 0 mm 5 m/s 673 mmHg 25%
18:00 +30°C° 0 mm 5 m/s 673 mmHg 27%
19:00 +28°C° 0 mm 4 m/s 673 mmHg 34%
20:00 +26°C° 0 mm 3 m/s 673 mmHg 41%
21:00 +24°C° 0 mm 2 m/s 672 mmHg 49%
22:00 +23°C° 0 mm 1 m/s 672 mmHg 51%
23:00 +22°C° 0 mm 1 m/s 672 mmHg 53%

Demain, 8 Juillet, Mercredi

Heure Température Précipitation Vent Pression Humidité
00:00 +22°C° 0 mm 1 m/s 672 mmHg 55%
01:00 +22°C° 0 mm 1 m/s 672 mmHg 53%
02:00 +21°C° 0 mm 1 m/s 671 mmHg 50%
03:00 +21°C° 0 mm 1 m/s 671 mmHg 48%
04:00 +23°C° 0 mm 1 m/s 672 mmHg 44%
05:00 +24°C° 0 mm 1 m/s 672 mmHg 40%
06:00 +25°C° 0 mm 1 m/s 673 mmHg 36%
07:00 +27°C° 0 mm 2 m/s 673 mmHg 33%
08:00 +28°C° 0 mm 3 m/s 674 mmHg 29%
09:00 +30°C° 0 mm 4 m/s 675 mmHg 25%
10:00 +32°C° 0 mm 4 m/s 675 mmHg 22%
11:00 +33°C° 0 mm 5 m/s 675 mmHg 19%
12:00 +35°C° 0 mm 5 m/s 675 mmHg 16%
13:00 +35°C° 0 mm 6 m/s 675 mmHg 15%
14:00 +35°C° 0 mm 6 m/s 675 mmHg 14%
15:00 +35°C° 0 mm 6 m/s 674 mmHg 13%
16:00 +34°C° 0 mm 6 m/s 674 mmHg 14%
17:00 +33°C° 0 mm 6 m/s 674 mmHg 15%
18:00 +32°C° 0 mm 6 m/s 673 mmHg 16%
19:00 +29°C° 0 mm 5 m/s 673 mmHg 20%
20:00 +27°C° 0 mm 3 m/s 673 mmHg 25%
21:00 +24°C° 0 mm 2 m/s 673 mmHg 29%
22:00 +24°C° 0 mm 2 m/s 672 mmHg 31%
23:00 +23°C° 0 mm 2 m/s 672 mmHg 33%

Après-demain, 9 Juillet, Jeudi

Heure Température Précipitation Vent Pression Humidité
00:00 +21°C° 0 mm 2 m/s 672 mmHg 35%
01:00 +22°C° 0 mm 1 m/s 672 mmHg 35%
02:00 +22°C° 0 mm 1 m/s 672 mmHg 34%
03:00 +21°C° 0 mm 1 m/s 672 mmHg 34%
04:00 +22°C° 0 mm 1 m/s 672 mmHg 31%
05:00 +24°C° 0 mm 1 m/s 673 mmHg 29%
06:00 +25°C° 0 mm 1 m/s 673 mmHg 26%
07:00 +27°C° 0 mm 1 m/s 674 mmHg 22%
08:00 +29°C° 0 mm 1 m/s 674 mmHg 18%
09:00 +31°C° 0 mm 1 m/s 675 mmHg 14%
10:00 +32°C° 0 mm 2 m/s 675 mmHg 12%
11:00 +34°C° 0 mm 3 m/s 675 mmHg 11%
12:00 +35°C° 0 mm 4 m/s 675 mmHg 10%
13:00 +36°C° 0 mm 4 m/s 675 mmHg 10%
14:00 +36°C° 0 mm 4 m/s 674 mmHg 10%
15:00 +36°C° 0 mm 4 m/s 674 mmHg 10%
16:00 +36°C° 0 mm 5 m/s 674 mmHg 12%
17:00 +35°C° 0 mm 5 m/s 674 mmHg 13%
18:00 +34°C° 0 mm 6 m/s 673 mmHg 14%
19:00 +32°C° 0 mm 5 m/s 673 mmHg 21%
20:00 +28°C° 0 mm 3 m/s 673 mmHg 28%
21:00 +26°C° 0 mm 2 m/s 673 mmHg 35%
22:00 +25°C° 0 mm 2 m/s 672 mmHg 37%
23:00 +25°C° 0 mm 2 m/s 672 mmHg 38%

10 Juillet, Vendredi

Heure Température Précipitation Vent Pression Humidité
00:00 +24°C° 0 mm 2 m/s 672 mmHg 40%
01:00 +23°C° 0 mm 1 m/s 671 mmHg 40%
02:00 +23°C° 0 mm 1 m/s 671 mmHg 40%
03:00 +22°C° 0 mm 1 m/s 670 mmHg 39%
04:00 +24°C° 0 mm 1 m/s 671 mmHg 36%
05:00 +25°C° 0 mm 1 m/s 672 mmHg 32%
06:00 +27°C° 0 mm 2 m/s 673 mmHg 29%
07:00 +28°C° 0 mm 2 m/s 673 mmHg 26%
08:00 +30°C° 0 mm 2 m/s 674 mmHg 23%
09:00 +31°C° 0 mm 3 m/s 674 mmHg 21%
10:00 +33°C° 0 mm 3 m/s 674 mmHg 19%
11:00 +35°C° 0 mm 4 m/s 674 mmHg 17%
12:00 +36°C° 0 mm 4 m/s 674 mmHg 15%
13:00 +36°C° 0 mm 4 m/s 674 mmHg 14%
14:00 +36°C° 0 mm 4 m/s 673 mmHg 14%
15:00 +36°C° 0 mm 4 m/s 673 mmHg 13%
16:00 +35°C° 0 mm 5 m/s 673 mmHg 16%
17:00 +34°C° 0 mm 5 m/s 673 mmHg 19%
18:00 +32°C° 0 mm 6 m/s 672 mmHg 22%
19:00 +30°C° 0 mm 5 m/s 673 mmHg 25%
20:00 +29°C° 0 mm 3 m/s 673 mmHg 28%
21:00 +27°C° 0 mm 2 m/s 673 mmHg 32%
22:00 +27°C° 0 mm 2 m/s 673 mmHg 33%
23:00 +26°C° 0 mm 2 m/s 672 mmHg 35%

11 Juillet, Samedi

Heure Température Précipitation Vent Pression Humidité
00:00 +25°C° 0 mm 1 m/s 672 mmHg 37%
01:00 +24°C° 0 mm 1 m/s 671 mmHg 37%
02:00 +24°C° 0 mm 1 m/s 671 mmHg 38%
03:00 +23°C° 0 mm 1 m/s 671 mmHg 39%
04:00 +25°C° 0 mm 1 m/s 671 mmHg 35%
05:00 +26°C° 0 mm 1 m/s 672 mmHg 32%
06:00 +27°C° 0 mm 1 m/s 672 mmHg 29%
07:00 +29°C° 0 mm 1 m/s 673 mmHg 26%
08:00 +30°C° 0 mm 2 m/s 674 mmHg 24%
09:00 +32°C° 0 mm 2 m/s 674 mmHg 22%
10:00 +34°C° 0 mm 3 m/s 674 mmHg 21%
11:00 +35°C° 0 mm 3 m/s 674 mmHg 20%
12:00 +36°C° 0 mm 4 m/s 674 mmHg 19%
13:00 +34°C° 0.2 mm 4 m/s 674 mmHg 24%
14:00 +33°C° 0.2 mm 5 m/s 673 mmHg 29%
15:00 +32°C° 0.2 mm 5 m/s 672 mmHg 34%
16:00 +30°C° 0.1 mm 5 m/s 672 mmHg 33%
17:00 +30°C° 0.1 mm 4 m/s 672 mmHg 32%
18:00 +29°C° 0.1 mm 4 m/s 672 mmHg 32%
19:00 +29°C° 0 mm 4 m/s 672 mmHg 32%
20:00 +28°C° 0 mm 3 m/s 672 mmHg 33%
21:00 +27°C° 0 mm 2 m/s 672 mmHg 33%
22:00 +27°C° 0 mm 2 m/s 672 mmHg 34%
23:00 +26°C° 0 mm 2 m/s 672 mmHg 34%

12 Juillet, Dimanche

Heure Température Précipitation Vent Pression Humidité
00:00 +25°C° 0 mm 1 m/s 672 mmHg 35%
01:00 +25°C° 0 mm 1 m/s 671 mmHg 35%
02:00 +25°C° 0 mm 2 m/s 671 mmHg 35%
03:00 +24°C° 0 mm 2 m/s 671 mmHg 36%
04:00 +25°C° 0 mm 2 m/s 672 mmHg 34%
05:00 +26°C° 0 mm 2 m/s 672 mmHg 33%
06:00 +27°C° 0 mm 2 m/s 673 mmHg 31%
07:00 +29°C° 0 mm 3 m/s 673 mmHg 28%
08:00 +32°C° 0 mm 4 m/s 674 mmHg 25%
09:00 +34°C° 0 mm 6 m/s 675 mmHg 22%
10:00 +35°C° 0 mm 6 m/s 675 mmHg 21%
11:00 +35°C° 0 mm 6 m/s 675 mmHg 19%
12:00 +36°C° 0 mm 7 m/s 675 mmHg 18%
13:00 +36°C° 0 mm 6 m/s 674 mmHg 18%
14:00 +36°C° 0 mm 5 m/s 674 mmHg 17%
15:00 +37°C° 0 mm 5 m/s 674 mmHg 17%
16:00 +36°C° 0 mm 4 m/s 673 mmHg 17%
17:00 +36°C° 0 mm 3 m/s 673 mmHg 18%
18:00 +35°C° 0 mm 2 m/s 673 mmHg 18%
19:00 +32°C° 0 mm 2 m/s 673 mmHg 23%
20:00 +30°C° 0 mm 1 m/s 672 mmHg 27%
21:00 +26°C° 0 mm 0 m/s 672 mmHg 32%
22:00 +27°C° 0 mm 1 m/s 672 mmHg 32%
23:00 +27°C° 0 mm 1 m/s 672 mmHg 32%
Voir plus